This demonstration page uses our WeatherBlox Daily Observations layout. Learn more.

Left ArrowRight Arrow

Hourly Observations for June 5, 2015

Temp ( °F °C ) Dew Point ( °F °C ) Humidity (%) Winds ( mph kmh ) Pressure ( in mb ) Visibility ( mi km ) Precip ( " mm )
12:54 am 00:54 Partly Cloudy 66 18.9 64 17.8 93 93 N 3 6 29.99 1016 10 16.0934 N/A
1:54 am 01:54 Clear 65 18.3 63 17.2 93 93 NW 5 7 30.02 1017 10 16.0934 N/A
2:54 am 02:54 Clear 66 18.9 60 15.6 81 81 N N/A 30.05 1018 10 16.0934 N/A
3:54 am 03:54 Mostly Cloudy 64 17.8 61 16.1 90 90 VRB 3 6 30.04 1017 10 16.0934 N/A
4:54 am 04:54 Clear 63 17.2 60 15.6 90 90 SSE 3 6 30.01 1016 10 16.0934 N/A
5:54 am 05:54 Clear 61 16.1 60 15.6 97 97 N N/A 30.04 1017 10 16.0934 N/A
6:54 am 06:54 Sunny 63 17.2 61 16.1 93 93 NNE 6 9 30.04 1017 9 14.48406 N/A
7:54 am 07:54 Sunny 66 18.9 62 16.7 87 87 N 5 7 30.08 1019 10 16.0934 N/A
8:54 am 08:54 Sunny 68 20 62 16.7 81 81 N N/A 30.09 1019 10 16.0934 N/A
9:54 am 09:54 Sunny 71 21.7 62 16.7 73 73 N N/A 30.09 1019 10 16.0934 N/A
10:54 am 10:54 Sunny 72 22.2 63 17.2 73 73 N N/A 30.09 1019 10 16.0934 N/A
11:54 am 11:54 Mostly Sunny 74 23.3 64 17.8 71 71 N 7 11 30.09 1019 10 16.0934 N/A
12:54 pm 12:54 Mostly Sunny 77 25 65 18.3 66 66 N N/A 30.07 1018 10 16.0934 N/A
1:54 pm 13:54 Sunny 79 26.1 65 18.3 62 62 NNE 3 6 30.04 1017 10 16.0934 N/A
2:54 pm 14:54 Sunny 82 27.8 63 17.2 53 53 N N/A 30.04 1017 10 16.0934 N/A
3:54 pm 15:54 Sunny 81 27.2 63 17.2 54 54 SSE 6 9 30.04 1017 10 16.0934 N/A
4:54 pm 16:54 Mostly Sunny 81 27.2 63 17.2 54 54 VRB 3 6 30.04 1017 10 16.0934 N/A
5:54 pm 17:54 Sunny 83 28.3 63 17.2 51 51 S 3 6 30.03 1017 10 16.0934 N/A
6:54 pm 18:54 Sunny 81 27.2 63 17.2 54 54 S 3 6 30.02 1017 10 16.0934 N/A
7:54 pm 19:54 Sunny 80 26.7 63 17.2 56 56 SSW 3 6 30.01 1016 10 16.0934 N/A
8:54 pm 20:54 Sunny 77 25 64 17.8 64 64 N N/A 30 1016 10 16.0934 N/A
9:54 pm 21:54 Clear 71 21.7 63 17.2 76 76 N N/A 30.01 1016 10 16.0934 N/A
10:54 pm 22:54 Clear 73 22.8 64 17.8 74 74 N N/A 30.03 1017 10 16.0934 N/A
11:54 pm 23:54 Clear 71 21.7 65 18.3 81 81 N N/A 30.02 1017 10 16.0934 N/A

Powered by AerisWeather